342  
ASUS42 KMHX 282013  
RWRMHX  
WEATHER ROUNDUP FOR EASTERN NORTH CAROLINA  
NATIONAL WEATHER SERVICE NEWPORT/MOREHEAD CITY NC  
400 PM EDT THU JUL 28 2016  
 
NOTE: "FAIR" INDICATES FEW OR NO CLOUDS BELOW 12,000 FEET  
WITH NO SIGNIFICANT WEATHER AND/OR S TO VISIBILITY
 
 
NCZ015>017-031-032-045>047-102-103-282100-  
NORTH COAST  
 
CITY SKY/WX TMP DP RH WIND PRES REMARKS
 
EDENTON MOSUNNY 98 75 48 W10G17 29.84F HX 109  
ELIZABETH CITY MOSUNNY 95 78 58 S8 29.83F HX 111  
KITTY HAWK PTCLDY 96 77 54 S6 29.84F HX 112  
MANTEO N/A 92 80 66 S17 29.85F HX 110  
 

 
 
NCZ045>047-081-094-103-104-282100-  
CENTRAL COAST  
 
CITY SKY/WX TMP DP RH WIND PRES REMARKS
 
FRISCO SUNNY 86 80 82 SW10 29.88F HX 101  
 

 
 
NCZ095-097-098-100-101-282100-  
SOUTHERN COAST  
 
CITY SKY/WX TMP DP RH WIND PRES REMARKS
 
BEAUFORT N/A 89 81 77 SW16 29.89 HX 108  
CEDAR ISLAND NOT AVBL  
JACKSONVILLE MOSUNNY 97 68 38 SW12G21 29.87F HX 102  
PINEY ISLAND NOT AVBL  
WILMINGTON MOSUNNY 96 73 47 SW15G21 29.89F HX 105  
 

 
 
NCZ011>013-027>030-043-044-078>080-089-090>093-098-282100-  
COASTAL PLAIN  
 
CITY SKY/WX TMP DP RH WIND PRES REMARKS
 
AHOSKIE SUNNY 93 78 61 S3 29.83F HX 108  
CLINTON SUNNY 98 73 45 SW12 29.88F HX 107  
ELIZABETHTOWN SUNNY 97 69 40 SW15 29.90F HX 103  
GOLDSBORO NOT AVBL  
GREENVILLE MOSUNNY 97 73 46 SW14G20 29.87F HX 107  
HAVELOCK SUNNY 94 75 54 SW14 29.88F HX 105  
KENANSVILLE NOT AVBL  
KINSTON SUNNY 99 66 34 SW9G17 29.86F HX 102  
NEW BERN SUNNY 96 73 47 SW8 29.87F HX 105  
RICHLANDS SUNNY 99 73 43 SW14 29.88F HX 109  
ROCKY MOUNT MOSUNNY 96 73 47 SW10 29.84F HX 105  
WASHINGTON SUNNY 95 75 51 SW15 29.84F HX 106  
WHITEVILLE SUNNY 96 71 44 SW5 29.91F HX 102  
 

 
 
AMZ130-135-150-152-154-156-158-170-250-252-270-ANZ085-086-088-633-658-670-282100-  
MARINE OBSERVATIONS  
 
STATION/POSITION TIME TEMP WIND PRES WAVE SWELL
 
AIR SEA DIR/SP/G HT/PER HT/PER  
(UTC) (F) (DEG/KT/KT) (MB) (FT/S) (FT/S)  
CHESAPEAKE LIGHT NOT AVBL  
64 E VA BEACH 1950 84 84 180/ 10/ 12 1010.7 2/ 6 2/ 6  
DUCK 1900 85 73 110/ 6/ 7 1010.7  
2 E DUCK 1911 82 N/A 1/ 8  
OREGON INLET 1900 86 85 190/ 14/ 15 1011.6  
13E OREGON INLT 2000 84 N/A 2/ 8 2/ 8  
HATTERAS CG 1900 87 83 210/ 10/ 15 1012.1  
DIAMOND BUOY 1950 86 86 220/ 16/ 17 1011.7 2/ 6 2/ 6  
CAPE LOOKOUT 2000 88 220/ 10/ 13 1011.9  
BEAUFORT LAB 1900 89 83 220/ 9/ 13 1011.9  
30 SE NEW RVR IN 1908 86 85 220/ 14/ 17 1012.9  
30 SE NEW RVR IN 1925 85 N/A 3/ 6  
27 SE WRIGHTSVLE 1908 86 85 220/ 14/ 17 1013.3  
5 SE WRIGHTSVLE 1908 84 81 210/ 14/ 19 1013.5  
225 S CAPE HAT 1950 83 85 230/ 8/ 10 1015.3 3/ 6 3/ 6  
41 SE CHARLESTON 1950 86 87 210/ 12/ 14 1014.5 3/ 6 2/ 8  
 

 
 
 
CLICK HERE TO GO TO PREVIOUS BULLETINS.

The Nexlab NC Page Main Text Page